Tracking 17780 objects as of 29-July-2016
HD Live streaming from Space Station
objects crossing your sky now

GLOBALSTAR M003

Track GLOBALSTAR M003 now!
10-day predictions
GLOBALSTAR M003 is classified as:


NORAD ID: 25165
Int'l Code: 1998-008D
Perigee: 1,630.3 km
Apogee: 1,640.4 km
Inclination: 52.0 °
Period: 118.8 minutes
Semi major axis: 8006 km
RCS: 2.2435 m2 (large)
Launch date: February 14, 1998
Source: Globalstar (GLOB)
Launch site: AIR FORCE EASTERN TEST RANGE (AFETR)
Your satellite tracking list
Your tracking list is empty





NASA's NSSDC Master Catalog

Two Line Element Set (TLE):
1 25165U 98008D   16209.35983529 -.00000008  00000-0  86846-3 0  9990
2 25165  51.9687 161.7910 0006290 234.9685 294.0410 12.11855732839629
Source of the keplerian elements: AFSPC

N2YO: 1136